SCP
3 3 3 3 4 5 6 6 5 5 4 4 3 3 2 2 2 2 2 1 1 1 1 1 1 1 1 1 1 1 1 1 1 1 1 1 1 1 1 1 1 1 1
3 3 3 3 4 5 5 5 5 4 4 3 3 2 2 2 2 2 2 2 1 1 1 1 1 1 1 1 1 1 1 1 1 1 1 1 1 1 1 1 1 1 1
3 3 3 3 3 4 4 4 4 4 3 3 3 2 2 2 2 2 2 2 1 1 1 1 1 1 1 1 1 1 1 1 1 1 1 1 1 1 1 1 1 1 1
2 2 2 3 3 3 3 3 4 4 3 3 3 3 2 2 2 2 2 2 2 1 1 1 1 1 1 0 0 1 1 0 0 1 1 1 1 1 1 1 1 1 1
1 2 2 2 2 2 3 3 4 4 3 3 3 3 3 2 2 2 2 2 2 1 1 1 1 1 1 1 0 0 0 0 0 0 0 1 1 1 0 0 1 1 1
1 1 1 1 2 2 2 3 3 4 4 3 3 3 3 3 3 2 2 2 2 2 1 1 1 1 1 1 1 0 0 0 0 0 0 0 0 0 0 0 0 0 0
1 1 1 1 1 1 2 2 3 4 4 3 3 3 3 3 3 3 2 2 2 2 2 2 2 1 1 1 1 1 0 0 0 0 0 0 0 0 0 0 0 0 0
1 1 1 1 1 1 1 2 2 3 3 3 3 3 3 3 3 3 2 2 2 2 2 2 2 2 1 1 1 1 1 0 0 0 0 0 0 0 0 0 0 0 0
0 0 0 0 1 1 1 1 1 2 2 2 2 2 2 2 2 2 2 2 2 2 2 2 2 2 1 1 1 1 1 1 0 0 0 0 0 0 0 0 0 0 0
0 0 0 0 0 0 0 0 1 1 1 1 1 1 1 1 2 2 2 2 2 2 2 2 2 2 2 1 1 1 1 1 1 0 0 0 0 0 0 0 0 0 0
0 0 0 0 0 0 0 0 0 0 0 0 1 1 1 1 1 1 1 1 2 2 2 2 2 1 1 1 1 1 1 1 0 0 0 0 0 0 0 0 0 0 0
0 0 0 0 0 0 0 0 0 0 0 0 0 0 0 0 0 1 1 1 1 1 1 1 1 1 1 1 1 1 1 1 0 0 0 0 0 0 0 0 0 0 0
0 0 0 0 0 0 0 0 0 0 0 0 0 0 0 0 0 0 0 1 1 1 1 1 1 1 1 1 1 1 1 1 0 0 0 0 0 0 0 0 0 0 0
0 0 0 0 0 0 0 0 0 0 0 0 0 0 0 0 0 0 0 0 0 0 1 1 1 1 1 1 1 1 1 0 0 0 0 0 0 0 0 0 0 0 0
0 0 0 0 0 0 0 0 0 0 0 0 0 0 0 0 0 0 0 0 0 0 0 0 0 0 0 0 0 1 0 0 0 0 0 0 0 0 0 0 0 0 0
0 0 0 0 0 0 0 0 0 0 0 0 0 0 0 0 0 0 0 0 0 0 0 0 0 0 0 0 0 0 0 0 0 0 0 0 0 0 0 0 0 0 0
0 0 0 0 0 0 0 0 0 0 0 0 0 0 0 0 0 0 0 0 0 0 0 0 0 0 0 0 0 0 0 0 0 0 0 0 0 0 0 0 0 0 0
0 0 0 0 0 0 0 0 0 0 0 0 0 0 0 0 0 0 0 0 0 0 0 0 0 0 0 0 0 0 0 0 0 0 0 0 0 0 0 0 0 0 0
0 0 0 0 0 0 0 0 0 0 0 0 0 0 0 0 0 0 0 0 0 0 0 0 0 0 0 0 0 0 0 0 0 0 0 0 0 0 0 0 0 0 0
0 0 0 0 0 0 0 0 0 0 0 0 0 0 0 0 0 0 0 0 0 0 0 0 0 0 0 0 0 0 0 0 0 0 0 0 0 0 0 0 0 0 0
0 0 0 0 0 1 1 0 0 0 0 0 0 0 0 0 0 0 0 0 0 0 0 0 0 0 0 0 0 0 0 0 0 0 0 0 0 0 0 0 0 0 0
0 0 0 0 1 1 1 0 0 0 0 0 0 0 0 0 0 0 0 0 0 0 0 0 0 0 0 0 0 0 0 0 0 0 0 0 0 0 0 0 0 0 0
0 0 0 0 0 0 0 0 0 0 0 0 0 0 0 0 0 0 0 0 0 0 0 0 0 0 0 0 0 0 0 0 0 0 0 0 0 0 0 0 0 0 0
0 0 0 0 0 0 0 0 0 0 0 0 0 0 0 0 0 0 0 0 0 0 0 0 0 0 0 0 0 0 0 0 0 0 0 0 0 0 0 0 0 0 0
0 0 0 0 0 0 0 0 0 0 0 0 0 0 0 0 0 0 0 0 0 0 0 0 0 0 0 0 0 0 0 0 0 0 0 0 0 0 0 0 0 0 0
0 0 0 0 0 0 0 0 0 0 0 0 0 0 0 0 0 0 0 0 0 0 0 0 0 0 0 0 0 0 0 0 0 0 0 0 0 0 0 0 0 0 0
Wind_Speed
7 7 7 6 8 7 7 7 6 4 3 3 2 2 2 2 1 1 3 1 1 1 2 3 2 3 3 3 4 4 5 4 4 4 5 6 8 9 8 8 8 9 9
8 8 7 7 7 6 5 5 5 5 3 2 2 1 1 2 2 1 2 2 1 1 3 2 3 3 3 5 4 3 3 4 3 3 3 4 4 6 8 6 7 9 7
7 7 6 5 7 7 6 4 4 5 3 2 2 2 1 2 2 1 2 2 1 2 2 2 2 3 4 3 4 4 5 4 4 4 4 3 3 3 3 5 6 6 5
9 7 6 5 5 5 5 4 4 3 1 1 2 2 2 3 2 2 2 2 2 3 3 3 3 2 3 4 5 3 4 4 5 4 4 5 4 4 4 3 5 6 6
8 8 8 7 7 6 5 5 4 3 2 2 3 3 4 3 3 2 2 2 3 4 4 4 3 2 3 4 3 4 4 4 5 5 4 5 5 6 6 6 4 4 4
8 8 9 9 9 9 8 7 5 4 3 3 4 4 5 6 6 6 5 3 3 4 5 4 3 3 3 3 3 4 5 5 5 4 5 5 5 5 5 7 6 5 4
8 9 10 11 10 11 11 10 10 7 5 5 5 5 5 6 6 6 5 5 4 4 4 3 2 3 4 4 4 4 5 5 6 5 5 5 6 5 6 6 7 6 5
10 10 11 10 10 11 11 10 9 9 8 8 7 6 5 5 5 6 6 6 5 5 3 2 3 4 5 5 4 4 5 5 5 7 6 5 6 6 6 6 6 6 5
9 9 10 10 9 9 9 10 9 8 7 8 8 6 6 6 6 7 6 6 5 6 6 5 4 5 5 5 5 5 6 5 5 6 6 5 5 5 5 5 6 6 6
8 8 7 7 7 7 7 7 7 7 6 7 7 8 7 7 7 7 7 7 7 7 7 7 7 6 6 6 6 5 6 5 5 4 5 5 5 5 5 5 5 6 6
8 8 7 7 7 7 8 7 7 7 6 6 6 6 7 7 7 6 6 6 7 8 7 7 7 8 8 7 6 7 7 6 5 5 6 5 6 5 5 5 5 5 5
9 9 8 8 8 8 8 8 8 8 7 7 7 7 7 7 7 8 7 6 7 7 8 8 8 9 9 8 7 8 7 5 5 5 5 5 5 6 5 5 6 5 5
9 9 8 8 8 9 9 9 9 9 8 8 8 7 7 8 8 8 8 8 7 7 8 8 8 9 9 8 8 8 7 6 5 5 4 4 5 5 4 5 4 4 4
10 9 7 7 8 8 8 9 9 9 9 8 8 8 8 8 8 9 8 8 8 8 8 8 8 9 10 9 8 8 7 6 5 4 3 3 4 4 4 4 3 2 2
13 10 8 8 8 8 8 8 8 8 8 8 9 8 8 8 8 8 8 8 8 10 8 8 8 9 10 9 8 7 8 6 5 4 2 2 1 2 3 3 2 1 3
13 12 12 11 10 10 10 9 8 8 8 9 9 9 9 9 9 9 9 8 8 8 7 7 9 10 10 9 9 8 7 5 5 4 3 3 2 1 0 0 0 2 4
14 15 14 11 10 10 9 9 9 8 9 9 10 10 9 10 9 10 9 8 8 8 8 8 9 9 9 10 10 9 7 6 5 4 4 4 3 3 3 4 4 4 3
17 16 14 14 12 11 10 9 11 10 10 10 10 10 10 10 9 8 9 8 8 8 8 8 9 9 10 9 9 9 8 6 5 5 4 3 4 3 4 4 5 4 4
16 15 15 17 13 12 11 11 12 12 12 12 10 10 10 10 10 9 9 8 8 8 9 9 9 9 8 8 8 8 6 6 6 5 5 5 5 5 6 6 6 6 5
15 15 16 16 13 11 10 11 14 13 13 12 11 11 10 10 11 10 9 9 8 9 10 10 9 9 8 6 7 8 5 6 5 4 4 6 7 7 6 6 7 7 6
16 15 14 13 11 11 10 13 14 13 13 12 11 11 10 10 11 10 9 8 9 10 10 10 9 9 8 7 8 9 5 5 5 5 5 6 11 10 7 6 6 8 8
19 18 13 12 10 11 11 12 12 12 12 12 13 12 11 13 13 9 8 8 9 10 10 9 9 8 5 6 7 9 9 6 4 3 4 8 13 11 9 6 9 11 9
17 16 16 14 12 11 12 14 13 12 13 13 13 12 13 11 11 10 10 10 8 8 9 7 7 6 4 3 7 9 8 6 4 2 5 12 14 12 8 10 12 9 5
16 16 17 17 15 14 14 13 13 13 13 14 13 11 11 12 11 8 9 8 8 8 7 6 5 5 3 2 3 3 4 4 3 3 7 13 13 9 10 9 7 5 4
16 16 16 16 17 15 14 15 13 12 14 14 13 12 10 10 9 9 8 9 8 7 6 5 4 3 2 2 4 4 3 3 4 5 6 6 7 7 7 6 5 4 4
17 16 17 18 18 16 15 14 13 12 12 11 11 9 8 8 8 8 9 10 11 10 10 8 7 3 3 6 7 6 5 5 7 7 7 7 8 8 8 7 6 5 5
Wind_Direction
125 113 108 107 107 114 132 139 147 149 153 155 194 200 196 229 223 163 117 112 323 10 312 298 322 297 294 302 290 286 288 282 267 267 273 262 246 237 235 236 239 239 238
115 113 119 117 115 113 119 130 145 154 174 162 179 201 222 251 229 155 147 164 119 345 291 2 316 320 316 290 290 299 289 285 282 270 280 278 261 243 240 232 235 240 240
95 105 111 121 130 129 136 151 148 147 172 175 220 227 206 257 257 184 180 150 180 244 274 291 290 309 297 303 320 290 291 296 293 259 254 270 275 307 266 249 246 246 241
70 66 71 64 82 98 123 119 122 118 138 232 266 270 255 260 267 238 221 181 220 233 235 241 255 272 288 293 291 336 324 300 293 286 262 258 273 282 287 269 253 247 244
60 66 56 48 50 51 60 71 78 75 38 346 312 305 295 295 300 295 275 244 239 227 228 223 227 249 270 287 306 306 295 292 288 293 298 292 280 257 261 278 276 263 249
51 54 57 46 38 37 34 36 49 47 19 352 329 318 310 310 310 306 297 272 258 235 225 223 209 235 258 278 281 279 280 275 281 283 282 281 278 275 266 269 274 271 264
79 61 53 47 34 32 25 28 27 23 9 358 343 329 317 310 298 293 290 284 281 270 241 231 207 235 248 257 262 265 269 271 271 269 266 268 270 273 274 271 273 276 277
72 60 53 48 38 33 27 25 25 18 10 2 349 337 328 318 311 314 312 301 294 294 295 253 234 237 245 255 256 266 266 264 266 272 269 267 267 263 263 265 271 275 273
65 57 51 43 33 25 22 15 13 9 5 357 347 339 342 330 320 316 308 304 304 301 305 294 270 256 251 251 253 256 262 267 266 270 273 269 271 268 263 260 252 254 265
47 47 43 37 25 14 9 6 359 354 351 345 340 339 338 331 326 318 313 310 309 307 303 296 286 272 260 250 246 254 257 257 262 266 273 276 276 272 267 260 253 242 247
20 17 17 18 9 360 353 348 340 334 330 327 326 324 320 321 318 311 312 312 308 303 296 289 284 277 269 258 249 252 258 260 267 275 277 279 281 279 275 269 263 248 236
358 356 354 352 346 340 335 329 325 321 317 315 313 310 310 311 310 306 300 299 299 300 298 292 285 278 273 261 254 255 260 262 268 275 282 289 290 283 277 268 262 253 237
335 332 332 331 325 323 320 314 310 307 306 304 301 301 301 301 298 296 295 294 290 291 295 294 289 283 278 268 257 251 254 256 263 270 280 291 294 290 286 278 268 254 235
321 316 317 312 309 305 301 299 297 296 294 291 291 288 285 281 281 284 284 283 284 284 284 288 290 286 280 272 262 255 246 245 250 256 271 290 295 291 291 285 270 234 197
317 321 317 308 302 300 294 290 288 289 290 290 288 284 283 283 281 280 279 278 279 284 286 291 289 286 280 270 265 260 251 237 239 241 241 262 289 311 295 287 276 192 162
324 326 321 317 314 311 306 303 298 296 292 288 287 285 282 280 278 279 279 279 278 280 283 286 286 284 283 285 274 258 259 242 228 226 219 199 191 164 108 45 215 178 163
330 322 317 314 310 306 303 298 298 294 291 290 290 288 287 288 285 286 287 287 288 287 286 286 284 281 279 274 262 253 257 247 227 213 212 217 176 171 141 112 100 85 107
322 319 316 311 305 303 300 297 300 297 294 290 289 288 287 286 284 284 285 283 284 286 285 283 283 281 279 272 253 249 252 243 227 209 198 182 164 173 156 137 114 95 84
319 315 312 309 305 302 301 300 299 296 292 291 289 290 288 289 288 286 284 285 284 284 281 279 275 276 276 262 243 237 248 237 227 212 187 167 156 154 158 142 128 115 98
316 312 309 306 303 303 302 298 297 295 292 291 288 287 283 283 285 283 281 283 283 280 279 276 274 274 272 254 233 219 239 236 222 205 170 164 152 152 157 150 139 131 122
312 310 307 304 302 300 296 293 293 291 291 291 289 285 281 280 278 273 271 274 277 277 276 276 275 269 262 241 216 208 221 236 220 200 175 155 148 148 144 140 136 135 131
314 313 309 305 302 302 298 294 293 294 294 292 289 286 285 284 284 279 278 275 273 275 272 269 270 266 254 230 207 202 212 231 245 222 175 153 153 150 146 135 136 139 138
315 316 315 313 311 308 305 303 302 300 296 292 290 288 287 282 279 277 277 275 269 267 269 267 268 268 252 206 191 195 209 229 240 252 155 149 153 148 143 143 147 152 149
321 321 318 314 312 310 307 301 299 297 294 292 290 287 284 281 277 271 269 268 266 266 268 266 266 273 257 197 170 178 189 185 187 167 141 144 153 150 139 146 158 171 160
323 322 319 315 312 310 307 304 302 301 298 294 289 286 280 277 275 272 267 265 260 257 261 269 267 266 252 200 173 164 172 164 155 140 143 153 159 154 148 156 165 165 157
325 322 318 314 312 311 308 305 303 301 297 293 288 284 281 276 272 273 277 265 257 261 256 247 251 255 189 161 164 166 169 161 147 150 159 164 164 160 158 162 162 164 157